Location: Krakow
(50.0830°N, 19.9170°E)
Time: 19:33:07
(UTC+02:00)

Vanguard 1 Rocket - Pass Details

Date: 22 March 2026
Orbit: 654 x 4213 km, 34.3° (Epoch: 11 April)

Event Time Altitude Azimuth Distance (km) Brightness Sun altitude
Exits shadow 03:30:50 - 192° (SSW) 3,969 10.3 -20.6°
Reaches altitude 10° 03:32:12 10° 185° (S) 3,648 10.2 -20.4°
Maximum altitude 03:35:05 12° 166° (SSE) 3,141 10.0 -20.0°
Drops below altitude 10° 03:37:32 10° 146° (SE) 2,987 10.1 -19.7°
Sets 03:41:47 0° 114° (ESE) 3,467 11.0 -19.0°
